| time (UTC) | temp F | wind direction | speed MPH | gust MPH | rain 1hr in | rain 24hr in | rain mn in | humidity % | barometer mb |
| 20260507105515 | 50 | 0 | 0.0 | 0.0 | 0.00 | 0.00 | 0.00 | 80 | 1020.9 |
| 20260507105015 | 50 | 0 | 0.0 | 0.0 | 0.00 | 0.00 | 0.00 | 80 | 1020.9 |
| 20260507104531 | 50 | 0 | 0.0 | 0.0 | 0.00 | 0.00 | 0.00 | 79 | 1020.9 |
| 20260507104016 | 50 | 0 | 0.0 | 2.0 | 0.00 | 0.00 | 0.00 | 79 | 1020.8 |
| 20260507103514 | 50 | 0 | 0.0 | 2.0 | 0.00 | 0.00 | 0.00 | 79 | 1021.0 |
| 20260507103033 | 50 | 0 | 0.0 | 0.0 | 0.00 | 0.00 | 0.00 | 79 | 1020.9 |
| 20260507102515 | 50 | 0 | 0.0 | 0.0 | 0.00 | 0.00 | 0.00 | 79 | 1021.1 |
| 20260507102018 | 50 | 0 | 0.0 | 0.0 | 0.00 | 0.00 | 0.00 | 79 | 1021.0 |
| 20260507101539 | 50 | 0 | 0.0 | 2.0 | 0.00 | 0.00 | 0.00 | 79 | 1021.0 |
| 20260507101021 | 50 | 0 | 0.0 | 1.0 | 0.00 | 0.00 | 0.00 | 79 | 1021.0 |
| 20260507100515 | 51 | 0 | 0.0 | 2.0 | 0.00 | 0.00 | 0.00 | 79 | 1021.0 |
| 20260507100045 | 51 | 0 | 0.0 | 3.0 | 0.00 | 0.00 | 0.00 | 78 | 1021.0 |
| 20260507095516 | 51 | 209 | 0.0 | 3.0 | 0.00 | 0.00 | 0.00 | 78 | 1020.9 |
| 20260507095015 | 51 | 0 | 0.0 | 4.0 | 0.00 | 0.00 | 0.00 | 78 | 1020.8 |
| 20260507094533 | 51 | 0 | 1.0 | 4.0 | 0.00 | 0.00 | 0.00 | 78 | 1020.8 |
| 20260507094015 | 51 | 230 | 0.0 | 4.0 | 0.00 | 0.00 | 0.00 | 78 | 1020.9 |
| 20260507093518 | 51 | 237 | 1.0 | 4.0 | 0.00 | 0.00 | 0.00 | 78 | 1021.0 |
| 20260507093031 | 51 | 238 | 0.0 | 2.0 | 0.00 | 0.00 | 0.00 | 78 | 1021.0 |
| 20260507092515 | 51 | 0 | 0.0 | 2.0 | 0.00 | 0.00 | 0.00 | 79 | 1021.1 |
| 20260507092016 | 51 | 0 | 0.0 | 2.0 | 0.00 | 0.00 | 0.00 | 79 | 1021.1 |
| 20260507091531 | 51 | 0 | 0.0 | 2.0 | 0.00 | 0.00 | 0.00 | 79 | 1021.1 |
| 20260507091015 | 51 | 221 | 0.0 | 2.0 | 0.00 | 0.00 | 0.00 | 79 | 1021.1 |
| 20260507090514 | 51 | 0 | 0.0 | 2.0 | 0.00 | 0.00 | 0.00 | 79 | 1021.3 |
| 20260507090033 | 51 | 227 | 1.0 | 3.0 | 0.00 | 0.00 | 0.00 | 79 | 1021.3 |
| 20260507085515 | 51 | 0 | 0.0 | 4.0 | 0.00 | 0.00 | 0.00 | 79 | 1021.3 |
| 20260507085015 | 51 | 0 | 1.0 | 4.0 | 0.00 | 0.00 | 0.00 | 79 | 1021.3 |
| 20260507084534 | 51 | 236 | 0.0 | 2.0 | 0.00 | 0.00 | 0.00 | 79 | 1021.4 |
| 20260507084014 | 51 | 0 | 0.0 | 2.0 | 0.00 | 0.00 | 0.00 | 79 | 1021.3 |
| 20260507083515 | 51 | 0 | 0.0 | 2.0 | 0.00 | 0.00 | 0.00 | 79 | 1021.4 |
| 20260507083044 | 51 | 0 | 0.0 | 2.0 | 0.00 | 0.00 | 0.00 | 79 | 1021.3 |
| 20260507082516 | 51 | 0 | 0.0 | 2.0 | 0.00 | 0.00 | 0.00 | 79 | 1021.4 |
| 20260507082016 | 51 | 0 | 0.0 | 3.0 | 0.00 | 0.00 | 0.00 | 79 | 1021.4 |
| 20260507081532 | 51 | 0 | 1.0 | 5.0 | 0.00 | 0.00 | 0.00 | 79 | 1021.3 |
| 20260507081016 | 51 | 0 | 1.0 | 5.0 | 0.00 | 0.00 | 0.00 | 78 | 1021.3 |
| 20260507080516 | 52 | 0 | 0.0 | 3.0 | 0.00 | 0.00 | 0.00 | 78 | 1021.3 |
| 20260507080031 | 52 | 193 | 0.0 | 3.0 | 0.00 | 0.00 | 0.00 | 78 | 1021.3 |
| 20260507075515 | 52 | 0 | 0.0 | 2.0 | 0.00 | 0.00 | 0.00 | 78 | 1021.3 |
| 20260507075014 | 52 | 245 | 0.0 | 4.0 | 0.00 | 0.00 | 0.00 | 78 | 1021.3 |
| 20260507074534 | 52 | 0 | 1.0 | 4.0 | 0.00 | 0.00 | 0.00 | 78 | 1021.3 |
| 20260507074015 | 52 | 217 | 0.0 | 4.0 | 0.00 | 0.00 | 0.00 | 78 | 1021.3 |
| 20260507073517 | 52 | 207 | 0.0 | 3.0 | 0.00 | 0.00 | 0.00 | 78 | 1021.2 |
| 20260507073035 | 52 | 232 | 0.0 | 2.0 | 0.00 | 0.00 | 0.00 | 78 | 1021.3 |
| 20260507072515 | 52 | 222 | 0.0 | 2.0 | 0.00 | 0.00 | 0.00 | 78 | 1021.2 |
| 20260507072013 | 52 | 222 | 0.0 | 2.0 | 0.00 | 0.00 | 0.00 | 78 | 1021.1 |
| 20260507071532 | 52 | 0 | 0.0 | 2.0 | 0.00 | 0.00 | 0.00 | 77 | 1021.3 |
| 20260507071015 | 52 | 0 | 0.0 | 2.0 | 0.00 | 0.00 | 0.00 | 77 | 1021.3 |
| 20260507070517 | 52 | 0 | 0.0 | 0.0 | 0.00 | 0.00 | 0.00 | 77 | 1021.2 |
| 20260507070040 | 52 | 0 | 0.0 | 2.0 | 0.00 | 0.00 | 0.00 | 77 | 1021.3 |
| 20260507065516 | 52 | 0 | 0.0 | 2.0 | 0.00 | 0.00 | 0.00 | 77 | 1021.1 |
| 20260507065016 | 52 | 0 | 0.0 | 2.0 | 0.00 | 0.00 | 0.00 | 77 | 1021.2 |
| 20260507064538 | 52 | 0 | 0.0 | 2.0 | 0.00 | 0.00 | 0.00 | 77 | 1021.2 |
| 20260507064015 | 52 | 0 | 0.0 | 2.0 | 0.00 | 0.00 | 0.00 | 77 | 1021.3 |
| 20260507063516 | 52 | 0 | 0.0 | 2.0 | 0.00 | 0.00 | 0.00 | 77 | 1021.1 |
| 20260507063034 | 52 | 0 | 0.0 | 2.0 | 0.00 | 0.00 | 0.00 | 77 | 1021.3 |
| 20260507062515 | 52 | 0 | 0.0 | 3.0 | 0.00 | 0.00 | 0.00 | 77 | 1021.3 |
| 20260507062014 | 52 | 0 | 0.0 | 5.0 | 0.00 | 0.00 | 0.00 | 77 | 1021.3 |
| 20260507061532 | 52 | 234 | 0.0 | 5.0 | 0.00 | 0.00 | 0.00 | 77 | 1021.3 |
| 20260507061018 | 52 | 0 | 0.0 | 0.0 | 0.00 | 0.00 | 0.00 | 77 | 1021.3 |
| 20260507060520 | 52 | 0 | 0.0 | 0.0 | 0.00 | 0.00 | 0.00 | 77 | 1021.3 |
| 20260507060032 | 52 | 0 | 0.0 | 0.0 | 0.00 | 0.00 | 0.00 | 77 | 1021.3 |
| 20260507055515 | 52 | 0 | 0.0 | 0.0 | 0.00 | 0.00 | 0.00 | 77 | 1021.3 |
| 20260507055015 | 52 | 0 | 0.0 | 2.0 | 0.00 | 0.00 | 0.00 | 77 | 1021.3 |
| 20260507054539 | 52 | 0 | 0.0 | 3.0 | 0.00 | 0.00 | 0.00 | 77 | 1021.3 |
| 20260507054015 | 52 | 234 | 0.0 | 4.0 | 0.00 | 0.00 | 0.00 | 77 | 1021.4 |
| 20260507053515 | 52 | 224 | 1.0 | 4.0 | 0.00 | 0.00 | 0.00 | 77 | 1021.4 |
| 20260507053034 | 52 | 235 | 1.0 | 4.0 | 0.00 | 0.00 | 0.00 | 77 | 1021.4 |
| 20260507052516 | 52 | 0 | 0.0 | 3.0 | 0.00 | 0.00 | 0.00 | 77 | 1021.4 |
| 20260507052016 | 53 | 236 | 1.0 | 4.0 | 0.00 | 0.00 | 0.00 | 77 | 1021.4 |
| 20260507051535 | 53 | 215 | 0.0 | 4.0 | 0.00 | 0.00 | 0.00 | 77 | 1021.4 |
| 20260507051015 | 53 | 0 | 0.0 | 3.0 | 0.00 | 0.00 | 0.00 | 77 | 1021.4 |
| 20260507050514 | 53 | 0 | 0.0 | 3.0 | 0.00 | 0.00 | 0.00 | 76 | 1021.3 |
| 20260507050039 | 53 | 242 | 0.0 | 5.0 | 0.00 | 0.00 | 0.00 | 76 | 1021.4 |
| 20260507045516 | 53 | 219 | 0.0 | 5.0 | 0.00 | 0.00 | 0.00 | 76 | 1021.4 |
| 20260507045013 | 53 | 234 | 2.0 | 5.0 | 0.00 | 0.00 | 0.00 | 76 | 1021.4 |
| 20260507044538 | 53 | 241 | 0.0 | 3.0 | 0.00 | 0.00 | 0.00 | 76 | 1021.4 |
| 20260507044015 | 53 | 262 | 0.0 | 2.0 | 0.00 | 0.00 | 0.00 | 76 | 1021.4 |
| 20260507043516 | 54 | 0 | 0.0 | 2.0 | 0.00 | 0.00 | 0.00 | 76 | 1021.4 |
| 20260507043030 | 54 | 0 | 0.0 | 4.0 | 0.00 | 0.00 | 0.00 | 76 | 1021.3 |
| 20260507042515 | 54 | 0 | 0.0 | 4.0 | 0.00 | 0.00 | 0.00 | 76 | 1021.2 |
| 20260507042017 | 54 | 240 | 1.0 | 3.0 | 0.00 | 0.00 | 0.00 | 76 | 1021.3 |
| 20260507041537 | 54 | 238 | 0.0 | 4.0 | 0.00 | 0.00 | 0.00 | 76 | 1021.1 |
| 20260507041015 | 54 | 232 | 0.0 | 5.0 | 0.00 | 0.00 | 0.00 | 76 | 1021.1 |
| 20260507040515 | 54 | 0 | 1.0 | 5.0 | 0.00 | 0.00 | 0.00 | 76 | 1021.1 |
| 20260507040032 | 54 | 0 | 0.0 | 2.0 | 0.00 | 0.00 | 0.00 | 76 | 1021.0 |
| 20260507035515 | 54 | 0 | 0.0 | 4.0 | 0.00 | 0.00 | 0.00 | 76 | 1021.0 |
| 20260507035016 | 54 | 0 | 0.0 | 4.0 | 0.00 | 0.00 | 0.00 | 76 | 1021.0 |
| 20260507034534 | 54 | 221 | 0.0 | 3.0 | 0.00 | 0.00 | 0.00 | 76 | 1021.0 |
| 20260507034015 | 54 | 0 | 1.0 | 4.0 | 0.00 | 0.00 | 0.00 | 76 | 1020.9 |
| 20260507033515 | 54 | 142 | 0.0 | 4.0 | 0.00 | 0.00 | 0.00 | 76 | 1021.0 |
| 20260507033035 | 55 | 317 | 0.0 | 2.0 | 0.00 | 0.00 | 0.00 | 76 | 1020.9 |
| 20260507032519 | 55 | 336 | 1.0 | 3.0 | 0.00 | 0.00 | 0.00 | 76 | 1020.9 |
| 20260507032016 | 55 | 231 | 0.0 | 4.0 | 0.00 | 0.00 | 0.00 | 76 | 1020.8 |
| 20260507031532 | 55 | 241 | 0.0 | 4.0 | 0.00 | 0.00 | 0.00 | 76 | 1020.8 |
| 20260507031015 | 55 | 207 | 1.0 | 4.0 | 0.00 | 0.00 | 0.00 | 76 | 1020.9 |
| 20260507030515 | 55 | 190 | 0.0 | 3.0 | 0.00 | 0.00 | 0.00 | 76 | 1020.9 |
| 20260507030033 | 55 | 226 | 0.0 | 3.0 | 0.00 | 0.00 | 0.00 | 76 | 1020.8 |
| 20260507025514 | 55 | 0 | 1.0 | 3.0 | 0.00 | 0.00 | 0.00 | 76 | 1020.8 |
| 20260507025015 | 55 | 229 | 1.0 | 3.0 | 0.00 | 0.00 | 0.00 | 76 | 1020.6 |
| 20260507024533 | 56 | 0 | 0.0 | 4.0 | 0.00 | 0.00 | 0.00 | 76 | 1020.6 |
| 20260507024015 | 56 | 0 | 1.0 | 4.0 | 0.00 | 0.00 | 0.00 | 77 | 1020.6 |
| 20260507023554 | 56 | 234 | 0.0 | 4.0 | 0.00 | 0.00 | 0.00 | 76 | 1020.6 |
| 20260507023039 | 56 | 0 | 0.0 | 4.0 | 0.00 | 0.00 | 0.00 | 76 | 1020.6 |
| 20260507022516 | 56 | 0 | 0.0 | 3.0 | 0.00 | 0.00 | 0.00 | 76 | 1020.6 |
| 20260507022014 | 56 | 229 | 1.0 | 3.0 | 0.00 | 0.00 | 0.00 | 76 | 1020.5 |
| 20260507021534 | 56 | 0 | 0.0 | 3.0 | 0.00 | 0.00 | 0.00 | 76 | 1020.6 |
| 20260507021018 | 56 | 0 | 0.0 | 2.0 | 0.00 | 0.00 | 0.00 | 76 | 1020.6 |
| 20260507020516 | 56 | 243 | 0.0 | 2.0 | 0.00 | 0.00 | 0.00 | 76 | 1020.6 |
| 20260507020034 | 56 | 312 | 0.0 | 2.0 | 0.00 | 0.00 | 0.00 | 76 | 1020.6 |
| 20260507015515 | 57 | 0 | 0.0 | 4.0 | 0.00 | 0.00 | 0.00 | 76 | 1020.6 |
| 20260507015016 | 57 | 0 | 0.0 | 4.0 | 0.00 | 0.00 | 0.00 | 75 | 1020.6 |
| 20260507014542 | 57 | 254 | 1.0 | 3.0 | 0.00 | 0.00 | 0.00 | 75 | 1020.6 |
| 20260507014016 | 57 | 291 | 1.0 | 5.0 | 0.00 | 0.00 | 0.00 | 75 | 1020.6 |
| 20260507013519 | 57 | 0 | 1.0 | 6.0 | 0.00 | 0.00 | 0.00 | 74 | 1020.6 |
| 20260507013032 | 57 | 243 | 0.0 | 6.0 | 0.00 | 0.00 | 0.00 | 75 | 1020.7 |
| 20260507012515 | 57 | 190 | 1.0 | 6.0 | 0.00 | 0.00 | 0.00 | 74 | 1020.6 |
| 20260507012016 | 57 | 221 | 1.0 | 6.0 | 0.00 | 0.00 | 0.00 | 74 | 1020.7 |
| 20260507011534 | 57 | 227 | 1.0 | 9.0 | 0.00 | 0.00 | 0.00 | 74 | 1020.7 |
| 20260507011015 | 58 | 181 | 0.0 | 9.0 | 0.00 | 0.00 | 0.00 | 74 | 1020.8 |
| 20260507010515 | 58 | 179 | 2.0 | 9.0 | 0.00 | 0.00 | 0.00 | 73 | 1020.8 |
| 20260507010032 | 58 | 219 | 1.0 | 4.0 | 0.00 | 0.00 | 0.00 | 73 | 1020.8 |
| 20260507005519 | 58 | 0 | 0.0 | 5.0 | 0.00 | 0.00 | 0.00 | 73 | 1020.7 |
| 20260507005015 | 58 | 0 | 1.0 | 7.0 | 0.00 | 0.00 | 0.00 | 73 | 1020.7 |
| 20260507004539 | 58 | 196 | 0.0 | 7.0 | 0.00 | 0.00 | 0.00 | 73 | 1020.6 |
| 20260507004016 | 58 | 0 | 1.0 | 7.0 | 0.00 | 0.00 | 0.00 | 72 | 1020.7 |
| 20260507003515 | 58 | 311 | 1.0 | 8.0 | 0.00 | 0.00 | 0.00 | 73 | 1020.7 |
| 20260507003033 | 59 | 210 | 2.0 | 8.0 | 0.00 | 0.00 | 0.00 | 72 | 1020.6 |
| 20260507002516 | 59 | 351 | 1.0 | 5.0 | 0.00 | 0.00 | 0.00 | 72 | 1020.7 |
| 20260507002015 | 58 | 234 | 1.0 | 7.0 | 0.00 | 0.00 | 0.00 | 73 | 1020.7 |
| 20260507001534 | 58 | 40 | 1.0 | 8.0 | 0.00 | 0.00 | 0.00 | 73 | 1020.7 |
| 20260507001016 | 59 | 225 | 2.0 | 8.0 | 0.00 | 0.00 | 0.00 | 74 | 1020.7 |
| 20260507000516 | 59 | 197 | 0.0 | 5.0 | 0.00 | 0.00 | 0.00 | 74 | 1020.8 |
| 20260507000032 | 59 | 266 | 1.0 | 5.0 | 0.00 | 0.00 | 0.00 | 74 | 1020.8 |
| 20260506235515 | 58 | 185 | 1.0 | 5.0 | 0.00 | 0.00 | 0.00 | 74 | 1020.7 |
| 20260506235015 | 58 | 206 | 1.0 | 5.0 | 0.00 | 0.00 | 0.00 | 76 | 1020.8 |
| 20260506234537 | 57 | 242 | 1.0 | 5.0 | 0.00 | 0.00 | 0.00 | 75 | 1021.0 |
| 20260506234016 | 57 | 350 | 1.0 | 4.0 | 0.00 | 0.00 | 0.00 | 75 | 1020.9 |
| 20260506233516 | 57 | 174 | 2.0 | 4.0 | 0.00 | 0.00 | 0.00 | 75 | 1021.0 |
| 20260506233032 | 57 | 202 | 0.0 | 4.0 | 0.00 | 0.00 | 0.00 | 76 | 1021.0 |
| 20260506232515 | 57 | 202 | 1.0 | 9.0 | 0.00 | 0.00 | 0.00 | 76 | 1020.9 |
| 20260506232015 | 57 | 227 | 2.0 | 9.0 | 0.00 | 0.00 | 0.00 | 76 | 1020.9 |
| 20260506231546 | 57 | 229 | 1.0 | 10.0 | 0.00 | 0.00 | 0.00 | 75 | 1020.9 |
| 20260506231015 | 57 | 198 | 2.0 | 10.0 | 0.00 | 0.00 | 0.00 | 75 | 1020.9 |
| 20260506230516 | 58 | 205 | 1.0 | 7.0 | 0.00 | 0.00 | 0.00 | 75 | 1020.9 |
| 20260506230037 | 58 | 219 | 1.0 | 7.0 | 0.00 | 0.00 | 0.00 | 75 | 1020.9 |
| 20260506225517 | 58 | 208 | 1.0 | 7.0 | 0.00 | 0.00 | 0.00 | 75 | 1020.9 |
| 20260506225013 | 58 | 103 | 1.0 | 8.0 | 0.00 | 0.00 | 0.00 | 75 | 1020.9 |
| 20260506224535 | 58 | 196 | 1.0 | 8.0 | 0.00 | 0.00 | 0.00 | 75 | 1020.9 |
| 20260506224016 | 58 | 348 | 1.0 | 6.0 | 0.00 | 0.00 | 0.00 | 76 | 1020.9 |
| 20260506223515 | 57 | 317 | 1.0 | 7.0 | 0.00 | 0.00 | 0.00 | 75 | 1020.9 |
| 20260506223045 | 57 | 230 | 2.0 | 10.0 | 0.00 | 0.00 | 0.00 | 75 | 1021.0 |
| 20260506222516 | 57 | 221 | 2.0 | 10.0 | 0.00 | 0.00 | 0.00 | 75 | 1021.0 |
| 20260506222016 | 57 | 153 | 2.0 | 4.0 | 0.00 | 0.00 | 0.00 | 75 | 1021.0 |
| 20260506221532 | 57 | 209 | 1.0 | 5.0 | 0.00 | 0.00 | 0.00 | 75 | 1021.1 |
| 20260506221019 | 57 | 237 | 1.0 | 5.0 | 0.00 | 0.00 | 0.00 | 75 | 1021.3 |
| 20260506220518 | 57 | 190 | 1.0 | 10.0 | 0.00 | 0.00 | 0.00 | 75 | 1021.3 |
| 20260506220036 | 57 | 186 | 1.0 | 10.0 | 0.00 | 0.00 | 0.00 | 76 | 1021.3 |
| 20260506215518 | 57 | 179 | 1.0 | 11.0 | 0.00 | 0.00 | 0.00 | 76 | 1021.1 |
| 20260506215014 | 57 | 112 | 4.0 | 11.0 | 0.00 | 0.00 | 0.00 | 75 | 1021.1 |
| 20260506214534 | 57 | 174 | 2.0 | 9.0 | 0.00 | 0.00 | 0.00 | 75 | 1021.1 |
| 20260506214014 | 57 | 173 | 3.0 | 10.0 | 0.00 | 0.00 | 0.00 | 75 | 1021.2 |
| 20260506213516 | 57 | 199 | 1.0 | 10.0 | 0.00 | 0.00 | 0.00 | 75 | 1021.1 |
| 20260506213038 | 57 | 25 | 2.0 | 9.0 | 0.00 | 0.00 | 0.00 | 75 | 1021.2 |
| 20260506212516 | 57 | 217 | 1.0 | 9.0 | 0.00 | 0.00 | 0.00 | 75 | 1021.3 |
| 20260506212015 | 57 | 76 | 1.0 | 9.0 | 0.00 | 0.00 | 0.00 | 75 | 1021.3 |
| 20260506211539 | 57 | 332 | 1.0 | 8.0 | 0.00 | 0.00 | 0.00 | 75 | 1021.3 |
| 20260506211015 | 57 | 237 | 2.0 | 8.0 | 0.00 | 0.00 | 0.00 | 76 | 1021.1 |
| 20260506210515 | 57 | 215 | 2.0 | 8.0 | 0.00 | 0.00 | 0.00 | 75 | 1021.2 |
| 20260506210036 | 57 | 236 | 2.0 | 8.0 | 0.00 | 0.00 | 0.00 | 75 | 1021.2 |
| 20260506205514 | 57 | 16 | 2.0 | 8.0 | 0.00 | 0.00 | 0.00 | 75 | 1021.1 |
| 20260506205014 | 57 | 198 | 1.0 | 10.0 | 0.00 | 0.00 | 0.00 | 76 | 1021.2 |
| 20260506204534 | 57 | 193 | 3.0 | 10.0 | 0.00 | 0.00 | 0.00 | 75 | 1021.4 |
| 20260506204014 | 57 | 257 | 1.0 | 8.0 | 0.00 | 0.00 | 0.00 | 75 | 1021.1 |
| 20260506203514 | 57 | 265 | 1.0 | 8.0 | 0.00 | 0.00 | 0.00 | 75 | 1021.1 |
| 20260506203034 | 57 | 244 | 1.0 | 5.0 | 0.00 | 0.00 | 0.00 | 76 | 1021.1 |
| 20260506202514 | 56 | 287 | 1.0 | 8.0 | 0.00 | 0.00 | 0.00 | 77 | 1021.1 |
| 20260506202016 | 56 | 222 | 2.0 | 8.0 | 0.00 | 0.00 | 0.00 | 77 | 1021.0 |
| 20260506201538 | 56 | 155 | 1.0 | 4.0 | 0.00 | 0.00 | 0.00 | 77 | 1021.0 |
| 20260506201012 | 56 | 167 | 1.0 | 4.0 | 0.00 | 0.00 | 0.00 | 76 | 1021.0 |
| 20260506200512 | 56 | 232 | 0.0 | 5.0 | 0.00 | 0.00 | 0.00 | 77 | 1021.1 |
| 20260506200033 | 56 | 182 | 2.0 | 7.0 | 0.00 | 0.00 | 0.00 | 77 | 1021.1 |
| 20260506195514 | 56 | 278 | 1.0 | 7.0 | 0.00 | 0.00 | 0.00 | 76 | 1020.9 |
| 20260506195016 | 56 | 203 | 2.0 | 7.0 | 0.00 | 0.00 | 0.00 | 76 | 1021.0 |
| 20260506194531 | 56 | 244 | 0.0 | 6.0 | 0.00 | 0.00 | 0.00 | 76 | 1020.9 |
| 20260506194010 | 56 | 333 | 2.0 | 6.0 | 0.00 | 0.00 | 0.00 | 76 | 1020.8 |
| 20260506193514 | 56 | 0 | 0.0 | 6.0 | 0.00 | 0.00 | 0.00 | 77 | 1020.9 |
| 20260506193034 | 56 | 325 | 2.0 | 6.0 | 0.00 | 0.00 | 0.00 | 77 | 1020.9 |
| 20260506192511 | 56 | 235 | 2.0 | 5.0 | 0.00 | 0.00 | 0.00 | 77 | 1020.9 |
| 20260506192013 | 56 | 240 | 0.0 | 5.0 | 0.00 | 0.00 | 0.00 | 77 | 1021.0 |
| 20260506191530 | 55 | 210 | 1.0 | 5.0 | 0.00 | 0.00 | 0.00 | 78 | 1020.9 |
| 20260506191016 | 55 | 317 | 0.0 | 8.0 | 0.00 | 0.00 | 0.00 | 77 | 1020.8 |
| 20260506190516 | 55 | 235 | 1.0 | 9.0 | 0.00 | 0.00 | 0.00 | 77 | 1020.7 |
| 20260506190031 | 56 | 240 | 2.0 | 9.0 | 0.00 | 0.00 | 0.00 | 77 | 1020.8 |
| 20260506185511 | 56 | 238 | 1.0 | 4.0 | 0.00 | 0.00 | 0.00 | 77 | 1020.9 |
| 20260506185018 | 56 | 242 | 0.0 | 2.0 | 0.00 | 0.00 | 0.00 | 77 | 1020.9 |
| 20260506184534 | 55 | 164 | 0.0 | 7.0 | 0.00 | 0.00 | 0.00 | 78 | 1020.9 |
| 20260506184014 | 55 | 0 | 2.0 | 7.0 | 0.00 | 0.00 | 0.00 | 76 | 1020.7 |
| 20260506183514 | 55 | 199 | 1.0 | 6.0 | 0.00 | 0.00 | 0.00 | 76 | 1020.8 |
| 20260506183040 | 55 | 238 | 1.0 | 3.0 | 0.00 | 0.00 | 0.00 | 77 | 1020.9 |
| 20260506182513 | 56 | 236 | 0.0 | 4.0 | 0.00 | 0.00 | 0.00 | 77 | 1020.8 |
| 20260506182014 | 56 | 184 | 1.0 | 7.0 | 0.00 | 0.00 | 0.00 | 76 | 1020.9 |
| 20260506181532 | 56 | 212 | 1.0 | 8.0 | 0.00 | 0.00 | 0.00 | 76 | 1020.8 |
| 20260506181011 | 56 | 35 | 2.0 | 8.0 | 0.00 | 0.00 | 0.00 | 76 | 1020.7 |
| 20260506180511 | 56 | 264 | 1.0 | 9.0 | 0.00 | 0.00 | 0.00 | 76 | 1020.5 |
| 20260506180035 | 56 | 254 | 2.0 | 9.0 | 0.00 | 0.00 | 0.00 | 76 | 1020.5 |
| 20260506175517 | 56 | 188 | 2.0 | 7.0 | 0.00 | 0.00 | 0.00 | 76 | 1020.4 |
| 20260506175013 | 56 | 225 | 1.0 | 7.0 | 0.00 | 0.00 | 0.00 | 76 | 1020.5 |
| 20260506174531 | 56 | 217 | 2.0 | 6.0 | 0.00 | 0.00 | 0.00 | 76 | 1020.6 |
| 20260506174011 | 56 | 286 | 2.0 | 9.0 | 0.00 | 0.00 | 0.00 | 76 | 1020.6 |
| 20260506173514 | 56 | 202 | 2.0 | 9.0 | 0.00 | 0.00 | 0.00 | 75 | 1020.4 |
| 20260506173031 | 56 | 234 | 3.0 | 9.0 | 0.00 | 0.00 | 0.00 | 75 | 1020.4 |
| 20260506172511 | 56 | 175 | 0.0 | 3.0 | 0.00 | 0.00 | 0.00 | 77 | 1020.3 |
| 20260506172015 | 56 | 32 | 1.0 | 3.0 | 0.00 | 0.00 | 0.00 | 77 | 1020.4 |
| 20260506171538 | 56 | 182 | 0.0 | 5.0 | 0.00 | 0.00 | 0.00 | 76 | 1020.4 |
| 20260506171017 | 55 | 234 | 2.0 | 5.0 | 0.00 | 0.00 | 0.00 | 76 | 1020.5 |
| 20260506170510 | 55 | 171 | 1.0 | 4.0 | 0.00 | 0.00 | 0.00 | 76 | 1020.4 |
| 20260506170034 | 55 | 217 | 1.0 | 4.0 | 0.00 | 0.00 | 0.00 | 77 | 1020.5 |
| 20260506165516 | 55 | 221 | 1.0 | 4.0 | 0.00 | 0.00 | 0.00 | 77 | 1020.6 |
| 20260506165016 | 55 | 330 | 1.0 | 7.0 | 0.00 | 0.00 | 0.00 | 77 | 1020.6 |
| 20260506164532 | 55 | 0 | 1.0 | 7.0 | 0.00 | 0.00 | 0.00 | 77 | 1020.4 |
| 20260506164021 | 55 | 327 | 2.0 | 7.0 | 0.00 | 0.00 | 0.00 | 77 | 1020.5 |
| 20260506163514 | 55 | 101 | 1.0 | 4.0 | 0.00 | 0.00 | 0.00 | 78 | 1020.5 |
| 20260506163034 | 55 | 183 | 1.0 | 5.0 | 0.00 | 0.00 | 0.00 | 78 | 1020.5 |
| 20260506162518 | 55 | 281 | 0.0 | 5.0 | 0.00 | 0.00 | 0.00 | 78 | 1020.3 |
| 20260506162021 | 55 | 0 | 0.0 | 4.0 | 0.00 | 0.00 | 0.00 | 78 | 1020.3 |
| 20260506161534 | 55 | 198 | 0.0 | 2.0 | 0.00 | 0.00 | 0.00 | 78 | 1020.3 |
| 20260506161018 | 55 | 219 | 1.0 | 4.0 | 0.00 | 0.00 | 0.00 | 79 | 1020.2 |
| 20260506160517 | 54 | 248 | 0.0 | 4.0 | 0.00 | 0.00 | 0.00 | 78 | 1020.1 |
| 20260506160034 | 54 | 154 | 1.0 | 2.0 | 0.00 | 0.00 | 0.00 | 78 | 1020.1 |
| 20260506155517 | 54 | 0 | 0.0 | 3.0 | 0.00 | 0.00 | 0.00 | 78 | 1020.0 |
| 20260506155014 | 54 | 0 | 0.0 | 4.0 | 0.00 | 0.00 | 0.00 | 78 | 1020.1 |
| 20260506154534 | 54 | 216 | 2.0 | 4.0 | 0.00 | 0.00 | 0.00 | 79 | 1020.0 |
| 20260506154016 | 54 | 202 | 0.0 | 4.0 | 0.00 | 0.00 | 0.00 | 79 | 1019.9 |
| 20260506153513 | 54 | 217 | 2.0 | 4.0 | 0.00 | 0.00 | 0.00 | 79 | 1020.1 |
| 20260506153034 | 54 | 210 | 0.0 | 3.0 | 0.00 | 0.00 | 0.00 | 80 | 1019.9 |
| 20260506152516 | 54 | 0 | 0.0 | 2.0 | 0.00 | 0.00 | 0.00 | 79 | 1020.0 |
| 20260506152015 | 53 | 239 | 0.0 | 3.0 | 0.00 | 0.00 | 0.00 | 79 | 1020.1 |
| 20260506151534 | 53 | 279 | 0.0 | 3.0 | 0.00 | 0.00 | 0.00 | 80 | 1020.0 |
| 20260506151016 | 53 | 255 | 0.0 | 6.0 | 0.00 | 0.00 | 0.00 | 80 | 1020.0 |
| 20260506150517 | 53 | 0 | 1.0 | 6.0 | 0.00 | 0.00 | 0.00 | 80 | 1020.1 |
| 20260506150034 | 53 | 0 | 1.0 | 3.0 | 0.00 | 0.00 | 0.00 | 80 | 1020.0 |
| 20260506145516 | 53 | 0 | 0.0 | 3.0 | 0.00 | 0.00 | 0.00 | 81 | 1020.2 |
| 20260506145016 | 52 | 237 | 1.0 | 3.0 | 0.00 | 0.00 | 0.00 | 81 | 1020.1 |
| 20260506144538 | 52 | 218 | 0.0 | 2.0 | 0.00 | 0.00 | 0.00 | 81 | 1019.8 |
| 20260506144015 | 52 | 0 | 0.0 | 2.0 | 0.00 | 0.00 | 0.00 | 81 | 1019.9 |
| 20260506143517 | 52 | 0 | 0.0 | 2.0 | 0.00 | 0.00 | 0.00 | 82 | 1019.8 |
| 20260506143034 | 52 | 0 | 0.0 | 2.0 | 0.00 | 0.00 | 0.00 | 82 | 1019.8 |
| 20260506142518 | 52 | 235 | 0.0 | 6.0 | 0.00 | 0.00 | 0.00 | 82 | 1019.8 |
| 20260506142019 | 52 | 212 | 0.0 | 6.0 | 0.00 | 0.00 | 0.00 | 82 | 1019.8 |
| 20260506141534 | 52 | 322 | 1.0 | 4.0 | 0.00 | 0.00 | 0.00 | 82 | 1019.6 |
| 20260506141016 | 52 | 240 | 0.0 | 4.0 | 0.00 | 0.00 | 0.00 | 82 | 1019.3 |
| 20260506140516 | 52 | 240 | 1.0 | 4.0 | 0.00 | 0.00 | 0.00 | 82 | 1019.6 |
| 20260506140030 | 52 | 273 | 1.0 | 4.0 | 0.00 | 0.00 | 0.00 | 82 | 1019.7 |
| 20260506135515 | 52 | 281 | 1.0 | 4.0 | 0.00 | 0.00 | 0.00 | 82 | 1019.7 |
| 20260506135015 | 52 | 0 | 1.0 | 4.0 | 0.00 | 0.00 | 0.00 | 83 | 1019.5 |
| 20260506134538 | 52 | 216 | 0.0 | 3.0 | 0.00 | 0.00 | 0.00 | 83 | 1019.4 |
| 20260506134011 | 52 | 217 | 1.0 | 3.0 | 0.00 | 0.00 | 0.00 | 83 | 1019.5 |
| 20260506133514 | 52 | 0 | 0.0 | 4.0 | 0.00 | 0.00 | 0.00 | 83 | 1019.4 |
| 20260506133029 | 51 | 217 | 0.0 | 4.0 | 0.00 | 0.00 | 0.00 | 83 | 1019.5 |
| 20260506132514 | 51 | 223 | 0.0 | 2.0 | 0.00 | 0.00 | 0.00 | 83 | 1019.4 |
| 20260506132020 | 52 | 0 | 0.0 | 2.0 | 0.00 | 0.00 | 0.00 | 83 | 1019.5 |
| 20260506131534 | 51 | 0 | 0.0 | 3.0 | 0.00 | 0.00 | 0.00 | 83 | 1019.5 |
| 20260506131011 | 51 | 162 | 1.0 | 2.0 | 0.00 | 0.00 | 0.00 | 83 | 1019.3 |
| 20260506130517 | 51 | 0 | 0.0 | 3.0 | 0.00 | 0.00 | 0.00 | 83 | 1019.4 |
| 20260506130030 | 51 | 277 | 0.0 | 4.0 | 0.00 | 0.00 | 0.00 | 83 | 1019.3 |
| 20260506125515 | 51 | 283 | 1.0 | 5.0 | 0.00 | 0.00 | 0.00 | 83 | 1019.2 |
| 20260506125015 | 51 | 0 | 1.0 | 5.0 | 0.00 | 0.00 | 0.00 | 83 | 1019.0 |
| 20260506124532 | 51 | 0 | 0.0 | 5.0 | 0.00 | 0.00 | 0.00 | 83 | 1019.0 |
| 20260506124011 | 51 | 244 | 0.0 | 3.0 | 0.00 | 0.00 | 0.00 | 83 | 1019.1 |
| 20260506123514 | 52 | 217 | 1.0 | 3.0 | 0.00 | 0.00 | 0.00 | 83 | 1019.1 |
| 20260506123034 | 52 | 281 | 0.0 | 4.0 | 0.00 | 0.00 | 0.00 | 83 | 1019.0 |
| 20260506122514 | 52 | 221 | 0.0 | 4.0 | 0.00 | 0.00 | 0.00 | 83 | 1019.1 |
| 20260506122017 | 52 | 235 | 0.0 | 4.0 | 0.00 | 0.00 | 0.00 | 83 | 1018.9 |
| 20260506121532 | 52 | 0 | 1.0 | 3.0 | 0.00 | 0.00 | 0.00 | 83 | 1018.9 |
| 20260506121014 | 52 | 232 | 0.0 | 7.0 | 0.00 | 0.00 | 0.00 | 83 | 1018.9 |
| 20260506120517 | 52 | 258 | 1.0 | 7.0 | 0.00 | 0.00 | 0.00 | 83 | 1018.9 |
| 20260506120040 | 52 | 0 | 0.0 | 5.0 | 0.00 | 0.00 | 0.00 | 83 | 1018.7 |
| 20260506115511 | 52 | 209 | 0.0 | 2.0 | 0.00 | 0.00 | 0.00 | 83 | 1018.8 |
| 20260506115012 | 52 | 262 | 0.0 | 2.0 | 0.00 | 0.00 | 0.00 | 83 | 1018.7 |
| 20260506114533 | 52 | 0 | 1.0 | 3.0 | 0.00 | 0.00 | 0.00 | 83 | 1018.6 |
| 20260506114013 | 52 | 0 | 0.0 | 3.0 | 0.00 | 0.00 | 0.00 | 83 | 1018.7 |
| 20260506113516 | 52 | 209 | 0.0 | 3.0 | 0.00 | 0.00 | 0.00 | 83 | 1018.5 |
| 20260506113034 | 52 | 242 | 1.0 | 7.0 | 0.00 | 0.00 | 0.00 | 83 | 1018.5 |
| 20260506112514 | 52 | 0 | 1.0 | 7.0 | 0.00 | 0.00 | 0.00 | 83 | 1018.4 |
| 20260506112018 | 52 | 216 | 0.0 | 5.0 | 0.00 | 0.00 | 0.00 | 83 | 1018.5 |
| 20260506111531 | 52 | 217 | 1.0 | 5.0 | 0.00 | 0.00 | 0.00 | 83 | 1018.4 |
| 20260506111018 | 52 | 227 | 2.0 | 5.0 | 0.00 | 0.00 | 0.00 | 83 | 1018.5 |
| 20260506110514 | 52 | 223 | 0.0 | 4.0 | 0.00 | 0.00 | 0.00 | 83 | 1018.5 |
| 20260506110032 | 52 | 224 | 0.0 | 4.0 | 0.00 | 0.00 | 0.00 | 83 | 1018.3 |